| time (UTC) | temp C | wind direction | speed KPH | gust KPH | rain 1hr cm | rain 24hr cm | rain mn cm | humidity % | barometer mb |
| 20260503220435 | 10 | 103 | 0.0 | 3.2 | 0.05 | 0.51 | 0.15 | 95 | 1015.5 |
| 20260503215935 | 10 | 217 | 0.0 | 0.0 | 0.05 | 0.51 | 0.15 | 95 | 1015.5 |
| 20260503215435 | 10 | 123 | 0.0 | 1.6 | 0.05 | 0.51 | 0.15 | 95 | 1015.3 |
| 20260503214935 | 10 | 123 | 0.0 | 1.6 | 0.05 | 0.51 | 0.15 | 95 | 1015.2 |
| 20260503214717 | 10 | 163 | 0.0 | 1.6 | 0.08 | 0.51 | 0.15 | 95 | 1015.1 |
| 20260503213934 | 10 | 163 | 1.6 | 1.6 | 0.08 | 0.51 | 0.15 | 95 | 1015.1 |
| 20260503213434 | 10 | 159 | 1.6 | 1.6 | 0.08 | 0.51 | 0.15 | 95 | 1015.1 |
| 20260503212938 | 10 | 171 | 0.0 | 1.6 | 0.08 | 0.51 | 0.13 | 95 | 1015.1 |
| 20260503212436 | 10 | 188 | 0.0 | 1.6 | 0.05 | 0.51 | 0.13 | 95 | 1015.0 |
| 20260503211935 | 10 | 166 | 0.0 | 1.6 | 0.05 | 0.51 | 0.13 | 94 | 1014.9 |
| 20260503211435 | 10 | 175 | 0.0 | 1.6 | 0.05 | 0.51 | 0.13 | 94 | 1014.9 |
| 20260503211220 | 10 | 153 | 0.0 | 1.6 | 0.05 | 0.51 | 0.10 | 94 | 1014.7 |
| 20260503210434 | 10 | 153 | 0.0 | 1.6 | 0.05 | 0.48 | 0.10 | 94 | 1014.7 |
| 20260503210013 | 10 | 162 | 0.0 | 1.6 | 0.03 | 0.46 | 0.08 | 94 | 1014.6 |
| 20260503205955 | 10 | 176 | 0.0 | 1.6 | 0.05 | 0.48 | 0.08 | 94 | 1014.7 |
| 20260503205237 | 10 | 134 | 0.0 | 1.6 | 0.03 | 0.46 | 0.08 | 94 | 1014.6 |
| 20260503204435 | 10 | 180 | 0.0 | 1.6 | 0.00 | 0.43 | 0.05 | 94 | 1014.6 |
| 20260503203936 | 10 | 184 | 1.6 | 1.6 | 0.00 | 0.43 | 0.05 | 94 | 1014.5 |
| 20260503203435 | 10 | 55 | 1.6 | 0.0 | 0.00 | 0.43 | 0.05 | 94 | 1014.4 |
| 20260503203217 | 10 | 108 | 0.0 | 1.6 | 0.00 | 0.43 | 0.05 | 94 | 1014.4 |
| 20260503202722 | 10 | 63 | 1.6 | 3.2 | 0.00 | 0.43 | 0.05 | 94 | 1014.3 |
| 20260503202229 | 10 | 116 | 1.6 | 3.2 | 0.00 | 0.43 | 0.05 | 94 | 1014.4 |
| 20260503201435 | 10 | 135 | 0.0 | 3.2 | 0.00 | 0.43 | 0.05 | 93 | 1014.3 |
| 20260503201215 | 10 | 140 | 0.0 | 0.0 | 0.00 | 0.43 | 0.05 | 93 | 1014.3 |
| 20260503200434 | 10 | 140 | 1.6 | 1.6 | 0.00 | 0.43 | 0.05 | 94 | 1014.3 |
| 20260503195933 | 10 | 140 | 1.6 | 1.6 | 0.00 | 0.43 | 0.05 | 94 | 1014.3 |
| 20260503195435 | 10 | 191 | 1.6 | 1.6 | 0.00 | 0.43 | 0.05 | 94 | 1014.2 |
| 20260503194935 | 10 | 67 | 1.6 | 8.0 | 0.00 | 0.43 | 0.05 | 94 | 1014.3 |
| 20260503194719 | 10 | 84 | 0.0 | 8.0 | 0.00 | 0.43 | 0.05 | 94 | 1014.3 |
| 20260503193934 | 10 | 169 | 1.6 | 3.2 | 0.00 | 0.43 | 0.05 | 94 | 1014.2 |
| 20260503193717 | 10 | 118 | 1.6 | 3.2 | 0.03 | 0.43 | 0.05 | 94 | 1014.3 |
| 20260503192934 | 10 | 121 | 0.0 | 3.2 | 0.03 | 0.43 | 0.05 | 94 | 1014.2 |
| 20260503192434 | 10 | 146 | 1.6 | 1.6 | 0.03 | 0.43 | 0.05 | 94 | 1014.2 |
| 20260503191935 | 10 | 155 | 1.6 | 1.6 | 0.03 | 0.43 | 0.05 | 94 | 1014.1 |
| 20260503191744 | 10 | 127 | 1.6 | 3.2 | 0.03 | 0.43 | 0.05 | 94 | 1014.0 |
| 20260503191739 | 10 | 129 | 1.6 | 3.2 | 0.03 | 0.43 | 0.05 | 94 | 1014.1 |
| 20260503190434 | 10 | 61 | 1.6 | 1.6 | 0.05 | 0.43 | 0.05 | 94 | 1014.0 |
| 20260503185934 | 10 | 155 | 1.6 | 1.6 | 0.05 | 0.43 | 0.05 | 94 | 1013.9 |
| 20260503185715 | 10 | 161 | 1.6 | 1.6 | 0.05 | 0.43 | 0.05 | 94 | 1013.9 |
| 20260503185218 | 10 | 140 | 1.6 | 1.6 | 0.05 | 0.43 | 0.05 | 94 | 1013.9 |
| 20260503184440 | 10 | 120 | 1.6 | 3.2 | 0.05 | 0.43 | 0.05 | 94 | 1014.0 |
| 20260503183933 | 10 | 113 | 1.6 | 3.2 | 0.05 | 0.43 | 0.05 | 94 | 1013.9 |
| 20260503183434 | 10 | 131 | 1.6 | 3.2 | 0.05 | 0.43 | 0.05 | 94 | 1013.9 |
| 20260503182934 | 10 | 32 | 1.6 | 3.2 | 0.05 | 0.43 | 0.05 | 94 | 1013.8 |
| 20260503182436 | 10 | 201 | 1.6 | 1.6 | 0.05 | 0.43 | 0.05 | 94 | 1013.8 |
| 20260503181934 | 10 | 155 | 1.6 | 3.2 | 0.05 | 0.43 | 0.05 | 94 | 1013.7 |
| 20260503181433 | 10 | 132 | 1.6 | 3.2 | 0.05 | 0.43 | 0.05 | 94 | 1013.8 |
| 20260503180932 | 10 | 115 | 1.6 | 1.6 | 0.05 | 0.43 | 0.05 | 93 | 1013.6 |
| 20260503180434 | 10 | 123 | 1.6 | 1.6 | 0.03 | 0.41 | 0.03 | 93 | 1013.6 |
| 20260503175933 | 10 | 108 | 1.6 | 3.2 | 0.03 | 0.41 | 0.00 | 93 | 1013.7 |
| 20260503175714 | 10 | 180 | 0.0 | 3.2 | 0.00 | 0.38 | 0.00 | 93 | 1013.9 |
| 20260503174933 | 10 | 116 | 1.6 | 1.6 | 0.00 | 0.38 | 0.00 | 93 | 1013.9 |
| 20260503174435 | 10 | 116 | 1.6 | 4.8 | 0.00 | 0.38 | 0.00 | 93 | 1013.9 |
| 20260503173934 | 10 | 147 | 0.0 | 4.8 | 0.00 | 0.38 | 0.00 | 93 | 1013.8 |
| 20260503173433 | 10 | 171 | 1.6 | 3.2 | 0.00 | 0.38 | 0.00 | 93 | 1013.9 |
| 20260503172933 | 10 | 152 | 1.6 | 1.6 | 0.00 | 0.38 | 0.00 | 93 | 1014.0 |
| 20260503172433 | 10 | 161 | 1.6 | 8.0 | 0.00 | 0.38 | 0.00 | 93 | 1014.0 |
| 20260503171933 | 10 | 167 | 1.6 | 8.0 | 0.00 | 0.38 | 0.00 | 93 | 1014.0 |
| 20260503171806 | 10 | 103 | 1.6 | 1.6 | 0.00 | 0.38 | 0.00 | 93 | 1014.1 |
| 20260503171800 | 10 | 176 | 0.0 | 1.6 | 0.00 | 0.38 | 0.00 | 93 | 1014.0 |
| 20260503170724 | 10 | 163 | 1.6 | 1.6 | 0.00 | 0.38 | 0.00 | 93 | 1014.1 |
| 20260503150435 | 9 | 120 | 0.0 | 1.6 | 0.00 | 0.38 | 0.00 | 92 | 1014.5 |
| 20260503140215 | 9 | 160 | 0.0 | 1.6 | 0.00 | 0.38 | 0.38 | 93 | 1015.1 |
| 20260503130934 | 10 | 139 | 0.0 | 3.2 | 0.00 | 0.38 | 0.38 | 94 | 1015.2 |
| 20260503130714 | 10 | 123 | 0.0 | 1.6 | 0.00 | 0.38 | 0.38 | 94 | 1015.2 |
| 20260503110418 | 10 | 139 | 0.0 | 3.2 | 0.30 | 0.36 | 0.33 | 93 | 1014.8 |
| 20260503080908 | 13 | 187 | 0.0 | 1.6 | 0.00 | 0.05 | 0.03 | 71 | 1013.5 |
| 20260503080416 | 13 | 174 | 0.0 | 1.6 | 0.00 | 0.05 | 0.03 | 71 | 1013.5 |
| 20260503072648 | 13 | 80 | 0.0 | 3.2 | 0.00 | 0.05 | 0.03 | 69 | 1013.5 |
| 20260503072144 | 13 | 161 | 0.0 | 3.2 | 0.00 | 0.05 | 0.03 | 70 | 1013.4 |
| 20260503071443 | 13 | 110 | 0.0 | 1.6 | 0.00 | 0.10 | 0.03 | 70 | 1013.3 |
| 20260503071427 | 13 | 110 | 0.0 | 0.0 | 0.00 | 0.10 | 0.03 | 70 | 1013.4 |
| 20260503070409 | 13 | 170 | 1.6 | 3.2 | 0.00 | 0.10 | 0.03 | 68 | 1013.3 |
| 20260503054651 | 15 | 146 | 1.6 | 8.0 | 0.00 | 0.25 | 0.03 | 66 | 1013.1 |
| 20260503053909 | 14 | 155 | 1.6 | 0.0 | 0.00 | 0.25 | 0.03 | 67 | 1013.1 |
| 20260503053407 | 14 | 97 | 1.6 | 1.6 | 0.00 | 0.25 | 0.03 | 66 | 1013.3 |
| 20260503052910 | 15 | 80 | 1.6 | 1.6 | 0.00 | 0.25 | 0.03 | 67 | 1013.3 |
| 20260503052407 | 14 | 160 | 1.6 | 1.6 | 0.00 | 0.25 | 0.03 | 68 | 1013.3 |
| 20260503051908 | 14 | 180 | 1.6 | 1.6 | 0.00 | 0.25 | 0.03 | 66 | 1013.3 |
| 20260503051724 | 15 | 222 | 1.6 | 6.4 | 0.00 | 0.25 | 0.03 | 64 | 1013.3 |
| 20260503051720 | 15 | 127 | 1.6 | 6.4 | 0.00 | 0.25 | 0.03 | 65 | 1013.4 |
| 20260503050407 | 15 | 88 | 1.6 | 1.6 | 0.00 | 0.25 | 0.03 | 65 | 1013.1 |
| 20260503045908 | 15 | 188 | 1.6 | 3.2 | 0.00 | 0.25 | 0.03 | 66 | 1013.1 |
| 20260503045409 | 15 | 112 | 1.6 | 3.2 | 0.00 | 0.25 | 0.03 | 65 | 1013.1 |
| 20260503044907 | 15 | 84 | 1.6 | 3.2 | 0.00 | 0.25 | 0.03 | 67 | 1013.1 |
| 20260503044408 | 15 | 194 | 1.6 | 3.2 | 0.00 | 0.25 | 0.03 | 67 | 1013.1 |
| 20260503043913 | 15 | 200 | 1.6 | 3.2 | 0.00 | 0.28 | 0.03 | 67 | 1011.6 |
| 20260503043406 | 15 | 162 | 1.6 | 3.2 | 0.00 | 0.28 | 0.03 | 67 | 1013.1 |
| 20260503042905 | 15 | 191 | 1.6 | 3.2 | 0.00 | 0.28 | 0.03 | 69 | 1013.1 |
| 20260503042406 | 14 | 123 | 1.6 | 3.2 | 0.00 | 0.28 | 0.03 | 70 | 1013.4 |
| 20260503042246 | 14 | 91 | 1.6 | 1.6 | 0.00 | 0.28 | 0.03 | 69 | 1013.4 |
| 20260503042242 | 14 | 159 | 1.6 | 1.6 | 0.00 | 0.28 | 0.03 | 68 | 1013.3 |
| 20260503042236 | 14 | 186 | 1.6 | 1.6 | 0.00 | 0.28 | 0.03 | 69 | 1013.3 |
| 20260503040407 | 14 | 167 | 1.6 | 1.6 | 0.00 | 0.28 | 0.03 | 67 | 1013.3 |
| 20260503035907 | 14 | 143 | 1.6 | 3.2 | 0.00 | 0.28 | 0.03 | 67 | 1013.3 |
| 20260503035500 | 14 | 171 | 1.6 | 3.2 | 0.00 | 0.28 | 0.03 | 68 | 1013.3 |
| 20260503035212 | 14 | 159 | 1.6 | 4.8 | 0.00 | 0.28 | 0.03 | 67 | 1013.5 |
| 20260503033907 | 14 | 95 | 1.6 | 1.6 | 0.00 | 0.28 | 0.03 | 69 | 1013.6 |
| 20260503033652 | 14 | 95 | 1.6 | 1.6 | 0.00 | 0.28 | 0.03 | 69 | 1013.7 |
| 20260503032912 | 13 | 202 | 1.6 | 1.6 | 0.00 | 0.28 | 0.03 | 69 | 1013.8 |
| 20260503032706 | 14 | 115 | 1.6 | 4.8 | 0.00 | 0.28 | 0.03 | 67 | 1012.4 |
| 20260503032118 | 15 | 231 | 1.6 | 4.8 | 0.00 | 0.28 | 0.03 | 65 | 1012.4 |
| 20260503031334 | 14 | 160 | 1.6 | 1.6 | 0.00 | 0.28 | 0.03 | 69 | 1013.7 |
| 20260503030835 | 13 | 86 | 1.6 | 1.6 | 0.00 | 0.28 | 0.03 | 67 | 1013.7 |
| 20260503030335 | 15 | 22 | 1.6 | 1.6 | 0.00 | 0.28 | 0.03 | 65 | 1013.8 |
| 20260503030116 | 15 | 178 | 1.6 | 3.2 | 0.00 | 0.28 | 0.03 | 65 | 1013.7 |
| 20260503025333 | 15 | 107 | 1.6 | 3.2 | 0.00 | 0.28 | 0.03 | 66 | 1013.8 |
| 20260503025120 | 15 | 126 | 1.6 | 3.2 | 0.00 | 0.28 | 0.03 | 64 | 1013.9 |
| 20260503024615 | 15 | 96 | 1.6 | 3.2 | 0.00 | 0.28 | 0.03 | 65 | 1013.8 |
| 20260503023833 | 15 | 227 | 1.6 | 3.2 | 0.00 | 0.28 | 0.03 | 66 | 1014.0 |
| 20260503023335 | 15 | 94 | 1.6 | 3.2 | 0.00 | 0.28 | 0.03 | 66 | 1014.1 |
| 20260503022835 | 15 | 117 | 1.6 | 3.2 | 0.00 | 0.28 | 0.03 | 67 | 1014.0 |
| 20260503022334 | 15 | 140 | 1.6 | 3.2 | 0.00 | 0.28 | 0.03 | 67 | 1014.0 |
| 20260503022119 | 14 | 186 | 1.6 | 3.2 | 0.00 | 0.28 | 0.03 | 69 | 1014.1 |
| 20260503021333 | 13 | 204 | 1.6 | 3.2 | 0.00 | 0.28 | 0.03 | 68 | 1014.1 |
| 20260503020834 | 14 | 107 | 1.6 | 1.6 | 0.00 | 0.28 | 0.03 | 68 | 1014.2 |
| 20260503020334 | 14 | 107 | 1.6 | 1.6 | 0.00 | 0.28 | 0.03 | 68 | 1014.3 |
| 20260503015834 | 14 | 127 | 1.6 | 3.2 | 0.00 | 0.28 | 0.03 | 70 | 1014.2 |
| 20260503015636 | 13 | 166 | 1.6 | 3.2 | 0.00 | 0.30 | 0.03 | 73 | 1014.2 |
| 20260503014833 | 13 | 142 | 1.6 | 3.2 | 0.00 | 0.30 | 0.03 | 71 | 1014.2 |
| 20260503014334 | 13 | 155 | 1.6 | 3.2 | 0.00 | 0.30 | 0.03 | 70 | 1014.3 |
| 20260503013834 | 13 | 86 | 1.6 | 3.2 | 0.00 | 0.30 | 0.03 | 69 | 1014.3 |
| 20260503013341 | 13 | 155 | 1.6 | 3.2 | 0.03 | 0.30 | 0.03 | 71 | 1014.3 |
| 20260503012833 | 13 | 98 | 1.6 | 3.2 | 0.03 | 0.30 | 0.03 | 69 | 1014.2 |
| 20260503012334 | 13 | 159 | 1.6 | 4.8 | 0.03 | 0.30 | 0.03 | 71 | 1014.2 |
| 20260503012113 | 13 | 172 | 3.2 | 4.8 | 0.03 | 0.30 | 0.03 | 72 | 1014.2 |
| 20260503011332 | 13 | 136 | 1.6 | 3.2 | 0.03 | 0.30 | 0.03 | 72 | 1014.1 |
| 20260503011140 | 13 | 113 | 1.6 | 6.4 | 0.03 | 0.30 | 0.03 | 71 | 1014.1 |
| 20260503011134 | 13 | 119 | 1.6 | 3.2 | 0.03 | 0.30 | 0.03 | 72 | 1014.1 |
| 20260503005835 | 13 | 142 | 1.6 | 6.4 | 0.03 | 0.30 | 0.03 | 72 | 1014.1 |
| 20260503005334 | 13 | 136 | 1.6 | 4.8 | 0.03 | 0.30 | 0.03 | 72 | 1014.0 |
| 20260503005116 | 13 | 119 | 1.6 | 3.2 | 0.03 | 0.30 | 0.03 | 72 | 1014.0 |
| 20260503004617 | 13 | 163 | 3.2 | 4.8 | 0.03 | 0.33 | 0.03 | 73 | 1014.0 |
| 20260503003832 | 12 | 167 | 3.2 | 4.8 | 0.03 | 0.33 | 0.03 | 74 | 1014.0 |
| 20260503003333 | 12 | 190 | 1.6 | 8.0 | 0.00 | 0.30 | 0.00 | 74 | 1014.0 |
| 20260503002834 | 12 | 86 | 1.6 | 8.0 | 0.00 | 0.30 | 0.00 | 76 | 1014.1 |
| 20260503002336 | 12 | 153 | 1.6 | 1.6 | 0.00 | 0.33 | 0.00 | 79 | 1014.2 |
| 20260503001841 | 12 | 215 | 1.6 | 1.6 | 0.00 | 0.33 | 0.00 | 80 | 1014.3 |
| 20260503001335 | 11 | 103 | 0.0 | 1.6 | 0.00 | 0.33 | 0.00 | 81 | 1012.6 |
| 20260503001118 | 11 | 115 | 0.0 | 1.6 | 0.00 | 0.33 | 0.00 | 82 | 1014.4 |
| 20260503000336 | 11 | 87 | 1.6 | 3.2 | 0.00 | 0.33 | 0.00 | 83 | 1014.5 |
| 20260502235836 | 11 | 146 | 1.6 | 4.8 | 0.00 | 0.33 | 0.00 | 83 | 1014.6 |
| 20260502235335 | 11 | 185 | 1.6 | 4.8 | 0.00 | 0.33 | 0.00 | 84 | 1014.6 |
| 20260502235118 | 11 | 123 | 1.6 | 1.6 | 0.00 | 0.33 | 0.00 | 85 | 1014.4 |
| 20260502234335 | 11 | 46 | 1.6 | 1.6 | 0.00 | 0.33 | 0.00 | 86 | 1014.4 |
| 20260502233835 | 11 | 169 | 0.0 | 1.6 | 0.00 | 0.33 | 0.00 | 86 | 1014.5 |
| 20260502233622 | 10 | 169 | 0.0 | 1.6 | 0.00 | 0.33 | 0.00 | 87 | 1014.5 |
| 20260502232837 | 10 | 103 | 1.6 | 1.6 | 0.00 | 0.33 | 0.00 | 87 | 1014.6 |
| 20260502232335 | 10 | 136 | 1.6 | 1.6 | 0.00 | 0.33 | 0.00 | 87 | 1014.6 |
| 20260502232122 | 10 | 221 | 1.6 | 1.6 | 0.00 | 0.33 | 0.00 | 88 | 1014.5 |
| 20260502231335 | 10 | 90 | 1.6 | 1.6 | 0.00 | 0.33 | 0.00 | 88 | 1014.5 |
| 20260502230834 | 10 | 186 | 0.0 | 1.6 | 0.00 | 0.33 | 0.00 | 88 | 1014.5 |
| 20260502230349 | 10 | 184 | 0.0 | 3.2 | 0.00 | 0.33 | 0.00 | 88 | 1014.5 |
| 20260502230122 | 10 | 123 | 0.0 | 3.2 | 0.00 | 0.33 | 0.00 | 88 | 1014.4 |
| 20260502225334 | 10 | 154 | 0.0 | 0.0 | 0.00 | 0.33 | 0.00 | 88 | 1014.4 |
| 20260502225122 | 10 | 188 | 0.0 | 0.0 | 0.00 | 0.33 | 0.00 | 88 | 1014.4 |
| 20260502224340 | 10 | 276 | 0.0 | 0.0 | 0.00 | 0.33 | 0.00 | 89 | 1014.4 |
| 20260502223835 | 10 | 276 | 0.0 | 0.0 | 0.00 | 0.33 | 0.00 | 89 | 1014.4 |
| 20260502223334 | 9 | 276 | 0.0 | 0.0 | 0.00 | 0.33 | 0.00 | 90 | 1014.4 |
| 20260502222835 | 9 | 276 | 0.0 | 1.6 | 0.00 | 0.33 | 0.00 | 90 | 1014.3 |
| 20260502222334 | 9 | 163 | 0.0 | 1.6 | 0.00 | 0.33 | 0.00 | 90 | 1014.2 |
| 20260502221837 | 9 | 156 | 0.0 | 1.6 | 0.00 | 0.33 | 0.00 | 90 | 1014.1 |
| 20260502221334 | 8 | 86 | 0.0 | 1.6 | 0.00 | 0.33 | 0.00 | 90 | 1014.1 |
| 20260502220837 | 8 | 126 | 0.0 | 1.6 | 0.00 | 0.33 | 0.00 | 90 | 1014.0 |